Time,TemperatureF,DewpointF,PressureIn,WindDirection,WindDirectionDegrees,WindSpeedMPH,WindSpeedGustMPH,Humidity,HourlyPrecipIn,Conditions,Clouds,dailyrainin,SolarRadiationWatts/m^2,SoftwareType,DateUTC
2013-01-16 00:03:00,50.0,50.0,-100.00,NNW,332,10.0,26.0,100,0.00,,,1.44,0.000000,,2013-01-16 05:03:00,
2013-01-16 00:33:00,50.0,50.0,-100.00,NNW,332,10.0,26.0,100,0.00,,,1.44,0.000000,,2013-01-16 05:33:00,
2013-01-16 00:42:00,50.0,50.0,-100.00,NNW,332,10.0,26.0,100,0.00,,,1.44,0.000000,,2013-01-16 05:42:00,
2013-01-16 00:53:00,50.0,50.0,-100.00,NNW,332,10.0,26.0,100,0.00,,,1.44,0.000000,,2013-01-16 05:53:00,
2013-01-16 01:22:00,51.0,51.0,-100.00,North,359,6.0,17.0,100,0.00,,,1.42,0.000000,,2013-01-16 06:22:00,
2013-01-16 01:33:00,51.0,51.0,-100.00,North,359,6.0,17.0,100,0.00,,,1.42,0.000000,,2013-01-16 06:33:00,
2013-01-16 01:43:00,51.0,51.0,-100.00,North,359,6.0,17.0,100,0.00,,,1.42,0.000000,,2013-01-16 06:43:00,
2013-01-16 01:53:00,51.0,51.0,-100.00,North,359,6.0,17.0,100,0.00,,,1.42,0.000000,,2013-01-16 06:53:00,
2013-01-16 02:02:00,51.0,51.0,-100.00,North,359,6.0,17.0,100,0.00,,,1.42,0.000000,,2013-01-16 07:02:00,
2013-01-16 02:22:00,51.0,51.0,-100.00,NNW,343,5.0,10.0,100,0.01,,,1.42,0.000000,,2013-01-16 07:22:00,
2013-01-16 02:33:00,51.0,51.0,-100.00,NNW,343,5.0,10.0,100,0.01,,,1.42,0.000000,,2013-01-16 07:33:00,
2013-01-16 02:42:00,51.0,51.0,-100.00,NNW,343,5.0,10.0,100,0.01,,,1.42,0.000000,,2013-01-16 07:42:00,
2013-01-16 02:52:00,51.0,51.0,-100.00,NNW,343,5.0,10.0,100,0.01,,,1.42,0.000000,,2013-01-16 07:52:00,
2013-01-16 03:02:00,51.0,51.0,-100.00,NNW,343,5.0,10.0,100,0.01,,,1.42,0.000000,,2013-01-16 08:02:00,
2013-01-16 03:23:00,50.0,50.0,-100.00,NW,326,9.0,17.0,100,0.01,,,1.43,0.000000,,2013-01-16 08:23:00,
2013-01-16 03:33:00,50.0,50.0,-100.00,NW,326,9.0,17.0,100,0.01,,,1.43,0.000000,,2013-01-16 08:33:00,
2013-01-16 03:42:00,50.0,50.0,-100.00,NW,326,9.0,17.0,100,0.01,,,1.43,0.000000,,2013-01-16 08:42:00,
2013-01-16 03:53:00,50.0,50.0,-100.00,NW,326,9.0,17.0,100,0.01,,,1.43,0.000000,,2013-01-16 08:53:00,
2013-01-16 04:02:00,50.0,50.0,-100.00,NW,326,9.0,17.0,100,0.01,,,1.43,0.000000,,2013-01-16 09:02:00,
2013-01-16 04:33:00,49.0,49.0,-100.00,NE,37,6.0,14.0,100,0.00,,,1.41,0.000000,,2013-01-16 09:33:00,
2013-01-16 04:43:00,49.0,49.0,-100.00,NE,37,6.0,14.0,100,0.00,,,1.41,0.000000,,2013-01-16 09:43:00,
2013-01-16 04:53:00,49.0,49.0,-100.00,NE,37,6.0,14.0,100,0.00,,,1.41,0.000000,,2013-01-16 09:53:00,
2013-01-16 05:02:00,49.0,49.0,-100.00,NE,37,6.0,14.0,100,0.00,,,1.41,0.000000,,2013-01-16 10:02:00,
2013-01-16 05:33:00,49.0,49.0,-100.00,WNW,296,14.0,22.0,100,0.01,,,1.39,0.000000,,2013-01-16 10:33:00,
2013-01-16 05:43:00,49.0,49.0,-100.00,WNW,296,14.0,22.0,100,0.01,,,1.39,0.000000,,2013-01-16 10:43:00,
2013-01-16 05:53:00,49.0,49.0,-100.00,WNW,296,14.0,22.0,100,0.01,,,1.39,0.000000,,2013-01-16 10:53:00,
2013-01-16 06:02:00,49.0,49.0,-100.00,WNW,296,14.0,22.0,100,0.01,,,1.39,0.000000,,2013-01-16 11:02:00,
2013-01-16 06:03:00,49.0,49.0,-100.00,NW,324,12.0,25.0,100,0.00,,,1.29,0.000000,,2013-01-16 11:03:00,
2013-01-16 06:33:00,49.0,49.0,-100.00,NW,324,12.0,25.0,100,0.00,,,1.29,0.000000,,2013-01-16 11:33:00,
2013-01-16 06:43:00,49.0,49.0,-100.00,NW,324,12.0,25.0,100,0.00,,,1.29,0.000000,,2013-01-16 11:43:00,
2013-01-16 06:53:00,49.0,49.0,-100.00,NW,324,12.0,25.0,100,0.00,,,1.29,0.000000,,2013-01-16 11:53:00,
2013-01-16 07:03:00,49.0,49.0,-100.00,North,357,6.0,20.0,100,0.05,,,1.24,0.000000,,2013-01-16 12:03:00,
2013-01-16 07:33:00,49.0,49.0,-100.00,North,357,6.0,20.0,100,0.05,,,1.24,0.000000,,2013-01-16 12:33:00,
2013-01-16 07:43:00,49.0,49.0,-100.00,North,357,6.0,20.0,100,0.05,,,1.24,0.000000,,2013-01-16 12:43:00,
2013-01-16 07:53:00,49.0,49.0,-100.00,North,357,6.0,20.0,100,0.05,,,1.24,0.000000,,2013-01-16 12:53:00,
2013-01-16 08:03:00,49.0,49.0,-100.00,ENE,76,6.0,19.0,100,0.05,,,1.21,0.000000,,2013-01-16 13:03:00,
2013-01-16 08:33:00,49.0,49.0,-100.00,ENE,76,6.0,19.0,100,0.05,,,1.21,0.000000,,2013-01-16 13:33:00,
2013-01-16 08:43:00,49.0,49.0,-100.00,ENE,76,6.0,19.0,100,0.05,,,1.21,0.000000,,2013-01-16 13:43:00,
2013-01-16 08:53:00,49.0,49.0,-100.00,ENE,76,6.0,19.0,100,0.05,,,1.21,0.000000,,2013-01-16 13:53:00,
2013-01-16 09:03:00,47.0,47.0,-100.00,North,2,8.0,18.0,100,0.03,,,1.14,14.000000,,2013-01-16 14:03:00,
2013-01-16 09:33:00,47.0,47.0,-100.00,North,2,8.0,18.0,100,0.03,,,1.14,14.000000,,2013-01-16 14:33:00,
2013-01-16 09:43:00,47.0,47.0,-100.00,North,2,8.0,18.0,100,0.03,,,1.14,14.000000,,2013-01-16 14:43:00,
2013-01-16 09:53:00,47.0,47.0,-100.00,North,2,8.0,18.0,100,0.03,,,1.14,14.000000,,2013-01-16 14:53:00,
2013-01-16 10:03:00,45.0,45.0,-100.00,North,4,12.0,29.0,100,0.02,,,1.08,17.000000,,2013-01-16 15:03:00,
2013-01-16 10:33:00,45.0,45.0,-100.00,North,4,12.0,29.0,100,0.02,,,1.08,17.000000,,2013-01-16 15:33:00,
2013-01-16 10:43:00,45.0,45.0,-100.00,North,4,12.0,29.0,100,0.02,,,1.08,17.000000,,2013-01-16 15:43:00,
2013-01-16 10:53:00,45.0,45.0,-100.00,North,4,12.0,29.0,100,0.02,,,1.08,17.000000,,2013-01-16 15:53:00,
2013-01-16 11:03:00,45.0,45.0,-100.00,NW,319,5.0,16.0,100,0.00,,,1.02,29.000000,,2013-01-16 16:03:00,
2013-01-16 11:33:00,45.0,45.0,-100.00,NW,319,5.0,16.0,100,0.00,,,1.02,29.000000,,2013-01-16 16:33:00,
2013-01-16 11:43:00,45.0,45.0,-100.00,NW,319,5.0,16.0,100,0.00,,,1.02,29.000000,,2013-01-16 16:43:00,
2013-01-16 11:53:00,45.0,45.0,-100.00,NW,319,5.0,16.0,100,0.00,,,1.02,29.000000,,2013-01-16 16:53:00,
2013-01-16 12:03:00,45.0,45.0,-100.00,NNW,344,3.0,8.0,100,0.01,,,0.97,106.000000,,2013-01-16 17:03:00,
2013-01-16 12:33:00,45.0,45.0,-100.00,NNW,344,3.0,8.0,100,0.01,,,0.97,106.000000,,2013-01-16 17:33:00,
2013-01-16 12:44:00,45.0,45.0,-100.00,NNW,344,3.0,8.0,100,0.01,,,0.97,106.000000,,2013-01-16 17:44:00,
2013-01-16 12:53:00,45.0,45.0,-100.00,NNW,344,3.0,8.0,100,0.01,,,0.97,106.000000,,2013-01-16 17:53:00,
2013-01-16 13:03:00,49.0,49.0,-100.00,NNW,330,3.0,9.0,100,0.00,,,0.93,323.000000,,2013-01-16 18:03:00,
2013-01-16 13:33:00,49.0,49.0,-100.00,NNW,330,3.0,9.0,100,0.00,,,0.93,323.000000,,2013-01-16 18:33:00,
2013-01-16 13:43:00,49.0,49.0,-100.00,NNW,330,3.0,9.0,100,0.00,,,0.93,323.000000,,2013-01-16 18:43:00,
2013-01-16 13:53:00,49.0,49.0,-100.00,NNW,330,3.0,9.0,100,0.00,,,0.93,323.000000,,2013-01-16 18:53:00,
2013-01-16 14:03:00,45.0,45.0,-100.00,NE,47,9.0,16.0,100,0.00,,,0.89,128.000000,,2013-01-16 19:03:00,
2013-01-16 14:33:00,45.0,45.0,-100.00,NE,47,9.0,16.0,100,0.00,,,0.89,128.000000,,2013-01-16 19:33:00,
2013-01-16 14:43:00,45.0,45.0,-100.00,NE,47,9.0,16.0,100,0.00,,,0.89,128.000000,,2013-01-16 19:43:00,
2013-01-16 14:53:00,45.0,45.0,-100.00,NE,47,9.0,16.0,100,0.00,,,0.89,128.000000,,2013-01-16 19:53:00,
2013-01-16 15:03:00,42.0,42.0,-100.00,NNE,29,7.0,17.0,100,0.00,,,0.79,39.000000,,2013-01-16 20:03:00,
2013-01-16 15:23:00,42.0,42.0,-100.00,NNE,29,7.0,17.0,100,0.00,,,0.79,39.000000,,2013-01-16 20:23:00,
2013-01-16 15:33:00,42.0,42.0,-100.00,NNE,29,7.0,17.0,100,0.00,,,0.79,39.000000,,2013-01-16 20:33:00,
2013-01-16 15:43:00,42.0,42.0,-100.00,NNE,29,7.0,17.0,100,0.00,,,0.79,39.000000,,2013-01-16 20:43:00,
2013-01-16 15:53:00,42.0,42.0,-100.00,NNE,29,7.0,17.0,100,0.00,,,0.79,39.000000,,2013-01-16 20:53:00,
2013-01-16 16:03:00,44.0,44.0,-100.00,NW,312,7.0,11.0,100,0.02,,,0.70,37.000000,,2013-01-16 21:03:00,
2013-01-16 16:33:00,44.0,44.0,-100.00,NW,312,7.0,11.0,100,0.02,,,0.70,37.000000,,2013-01-16 21:33:00,
2013-01-16 16:43:00,44.0,44.0,-100.00,NW,312,7.0,11.0,100,0.02,,,0.70,37.000000,,2013-01-16 21:43:00,
2013-01-16 16:53:00,44.0,44.0,-100.00,NW,312,7.0,11.0,100,0.02,,,0.70,37.000000,,2013-01-16 21:53:00,
2013-01-16 17:03:00,44.0,44.0,-100.00,North,354,4.0,8.0,100,0.02,,,0.68,19.000000,,2013-01-16 22:03:00,
2013-01-16 17:23:00,44.0,44.0,-100.00,North,354,4.0,8.0,100,0.02,,,0.68,19.000000,,2013-01-16 22:23:00,
2013-01-16 17:33:00,44.0,44.0,-100.00,North,354,4.0,8.0,100,0.02,,,0.68,19.000000,,2013-01-16 22:33:00,
2013-01-16 17:43:00,44.0,44.0,-100.00,North,354,4.0,8.0,100,0.02,,,0.68,19.000000,,2013-01-16 22:43:00,
2013-01-16 17:53:00,44.0,44.0,-100.00,North,354,4.0,8.0,100,0.02,,,0.68,19.000000,,2013-01-16 22:53:00,
2013-01-16 18:33:00,44.0,44.0,-100.00,North,3,3.0,9.0,100,0.01,,,0.51,6.000000,,2013-01-16 23:33:00,
2013-01-16 18:43:00,44.0,44.0,-100.00,North,3,3.0,9.0,100,0.01,,,0.51,6.000000,,2013-01-16 23:43:00,
2013-01-16 18:53:00,44.0,44.0,-100.00,North,3,3.0,9.0,100,0.01,,,0.51,6.000000,,2013-01-16 23:53:00,
2013-01-16 19:02:00,44.0,44.0,-100.00,North,3,3.0,9.0,100,0.01,,,0.51,6.000000,,2013-01-17 00:02:00,
2013-01-16 19:33:00,44.0,44.0,-100.00,NNW,346,2.0,6.0,100,0.00,,,0.40,0.000000,,2013-01-17 00:33:00,
2013-01-16 19:42:00,44.0,44.0,-100.00,NNW,346,2.0,6.0,100,0.00,,,0.40,0.000000,,2013-01-17 00:42:00,
2013-01-16 19:53:00,44.0,44.0,-100.00,NNW,346,2.0,6.0,100,0.00,,,0.40,0.000000,,2013-01-17 00:53:00,
2013-01-16 20:02:00,44.0,44.0,-100.00,NNW,346,2.0,6.0,100,0.00,,,0.40,0.000000,,2013-01-17 01:02:00,
2013-01-16 20:22:00,44.0,44.0,-100.00,NNW,336,3.0,6.0,100,0.00,,,0.32,0.000000,,2013-01-17 01:22:00,
2013-01-16 20:33:00,44.0,44.0,-100.00,NNW,336,3.0,6.0,100,0.00,,,0.32,0.000000,,2013-01-17 01:33:00,
2013-01-16 20:43:00,44.0,44.0,-100.00,NNW,336,3.0,6.0,100,0.00,,,0.32,0.000000,,2013-01-17 01:43:00,
2013-01-16 20:53:00,44.0,44.0,-100.00,NNW,336,3.0,6.0,100,0.00,,,0.32,0.000000,,2013-01-17 01:53:00,
2013-01-16 21:02:00,44.0,44.0,-100.00,NNW,336,3.0,6.0,100,0.00,,,0.32,0.000000,,2013-01-17 02:02:00,
2013-01-16 21:03:00,44.0,44.0,-100.00,North,359,3.0,11.0,100,0.03,,,0.30,0.000000,,2013-01-17 02:03:00,
2013-01-16 21:32:00,44.0,44.0,-100.00,North,359,3.0,11.0,100,0.03,,,0.30,0.000000,,2013-01-17 02:32:00,
2013-01-16 21:43:00,44.0,44.0,-100.00,North,359,3.0,11.0,100,0.03,,,0.30,0.000000,,2013-01-17 02:43:00,
2013-01-16 21:52:00,44.0,44.0,-100.00,North,359,3.0,11.0,100,0.03,,,0.30,0.000000,,2013-01-17 02:52:00,
2013-01-16 22:33:00,42.0,42.0,-100.00,North,349,4.0,9.0,100,0.04,,,0.32,0.000000,,2013-01-17 03:33:00,
2013-01-16 22:43:00,42.0,42.0,-100.00,North,349,4.0,9.0,100,0.04,,,0.32,0.000000,,2013-01-17 03:43:00,
2013-01-16 22:53:00,42.0,42.0,-100.00,North,349,4.0,9.0,100,0.04,,,0.32,0.000000,,2013-01-17 03:53:00,
2013-01-16 23:02:00,42.0,42.0,-100.00,North,349,4.0,9.0,100,0.04,,,0.32,0.000000,,2013-01-17 04:02:00,
2013-01-16 23:03:00,43.0,43.0,-100.00,NNW,347,5.0,10.0,100,0.02,,,0.33,0.000000,,2013-01-17 04:03:00,
2013-01-16 23:33:00,43.0,43.0,-100.00,NNW,347,5.0,10.0,100,0.02,,,0.33,0.000000,,2013-01-17 04:33:00,
2013-01-16 23:43:00,43.0,43.0,-100.00,NNW,347,5.0,10.0,100,0.02,,,0.33,0.000000,,2013-01-17 04:43:00,
2013-01-16 23:53:00,43.0,43.0,-100.00,NNW,347,5.0,10.0,100,0.02,,,0.33,0.000000,,2013-01-17 04:53:00,